Retour au catalogue

SL-19 DEB

ActifUNKNOWN
NORAD 23482·DEBRIS·🇷🇺 Russia

Lancé Dec 26, 1994 depuis Baikonur Cosmodrome

Loading…

Prochains Passages (prochaines 24 heures)

TLE

FraisSource: Space-Track

Époque: Sep 14, 2026, 13:14 UTC

1 23482U 94085E   26257.55154639  .00000391  00000-0  10381-1 0  9992
2 23482  64.6845  87.4723 0380433 166.9167 227.3500 11.30982236306588

Suivez SL-19 DEB en temps réel avec AllMySat

Download on the App Store